Location: Sommers-Bausch Observatory
(40.0037°N, 105.2635°W)
Time: 22:33:13
(UTC-06:00)

Daily predictions for brighter satellites

Satellite Brightness Start Highest point End
(mag) Time Altitude Azimuth Time Altitude Azimuth Time Altitude Azimuth
Envisat 4.1 20:43:54 10° SE 20:48:10 28° ENE 20:52:28 10° N
Cosmos 1110 Rocket 4.1 20:44:43 10° NNW 20:50:03 78° ENE 20:55:18 10° SSE
USA 234 4.3 20:47:46 10° E 20:53:42 38° NNE 20:59:39 10° NW
Okean 2 3.6 20:49:46 10° S 20:53:48 51° E 20:57:53 10° NNE
Meteor 2-4 Rocket 3.9 20:51:39 10° S 20:57:25 67° E 21:03:19 10° NNE
Cosmos 2333 Rocket 4.0 20:54:13 10° SW 20:59:26 38° WNW 21:04:42 10° N
Meteor 1-19 Rocket 4.3 20:54:28 10° S 21:00:06 86° W 21:05:43 10° N
Cosmos 2297 3.8 20:55:55 10° NNW 21:01:40 85° WSW 21:07:23 10° SSE
PSLV R/B 3.9 21:01:25 10° SW 21:04:43 38° SSE 21:08:02 10° E
H-2A R/B 3.5 21:00:52 10° S 21:04:44 55° W 21:08:38 10° NNW
Cosmos 1726 Rocket 3.7 21:00:16 10° N 21:04:44 80° W 21:09:08 10° S
ISS -1.7 21:02:44 10° S 21:04:48 16° SE 21:06:53 10° E
BREEZE-M DEB (TANK) 3.0 20:59:24 10° SW 21:05:25 46° SSE 21:07:50 10° ENE
FENGYUN 3A 4.2 21:03:02 10° S 21:08:19 60° W 21:13:40 10° NNW
CZ-2C R/B 0.8 21:07:10 10° S 21:09:27 63° W 21:11:45 10° NNW
Cosmos 1461 3.4 21:11:11 10° NNW 21:15:22 46° NE 21:18:39 14° SE
Cosmos 2058 Rocket 3.3 21:14:15 10° NNW 21:18:37 73° W 21:22:57 10° S
SPOT 5 3.1 21:15:34 12° SE 21:19:25 44° ENE 21:23:32 10° N
Cosmos 494 Rocket 4.3 21:14:25 10° SSW 21:19:31 71° WNW 21:24:39 10° NNE
Cosmos 2285 Rocket 4.1 21:13:20 10° NNW 21:19:41 83° WSW 21:26:02 10° SSE
CZ-4 SHROUD 3.7 21:19:33 15° SE 21:21:53 43° ENE 21:24:55 10° N
Cosmos 1602 Rocket 3.7 21:19:02 10° S 21:23:24 56° E 21:27:48 10° NNE
Aureole 2 Rocket 2.8 21:23:36 10° SSW 21:27:35 75° WNW 21:31:13 10° NNE
Cosmos 1464 Rocket 4.1 21:24:06 10° N 21:30:14 79° W 21:36:23 10° S
ALOS 4.0 21:26:43 10° SSW 21:30:48 30° W 21:34:55 10° NW
H-2A R/B 4.0 21:29:19 10° E 21:31:36 13° ENE 21:33:55 10° NNE
deb Chang Zheng 4 4.1 21:27:18 10° N 21:31:40 62° WNW 21:35:58 10° SSW
Cosmos 1812 Rocket 3.9 21:30:27 10° N 21:34:42 47° E 21:37:38 19° SSE
SPOT 1/Viking Rocket 4.2 21:36:22 18° SE 21:39:46 41° ENE 21:44:35 10° N
Cosmos 2278 Rocket 4.5 21:37:15 10° NW 21:41:12 20° W 21:45:08 10° SW
Terra 3.9 21:39:33 11° E 21:41:47 14° ENE 21:44:17 10° NNE
H-2A R/B 3.2 21:43:09 10° S 21:47:08 41° W 21:51:16 10° NNW
Cosmos 2034 Rocket 4.2 21:42:30 10° N 21:48:52 76° W 21:55:10 10° S
PSLV R/B 3.3 21:48:38 23° S 21:50:25 70° WSW 21:53:32 10° NNW
SeaSat 1 2.4 21:47:09 20° SSE 21:50:39 88° WSW 21:55:38 10° NNW
Cosmos 1666 3.8 21:48:00 10° NNW 21:51:43 43° W 21:55:24 10° SSW
Atlas Centaur 2 3.5 21:45:30 10° SW 21:52:29 38° SSE 21:58:15 17° ESE
Cosmos 2369 Rocket 3.1 21:50:00 10° N 21:55:12 36° ENE 21:58:16 21° ESE
ARGOS 3.6 21:52:05 22° SE 21:55:14 46° ENE 22:00:24 10° N
Cosmos 1626 Rocket 4.1 21:52:05 10° SSW 21:56:29 61° W 22:00:52 10° N
Cosmos 1939 Rocket 4.0 21:53:32 11° S 21:57:22 42° W 22:01:21 10° NNW
CZ-4B R/B 3.5 21:53:04 10° NNE 21:58:09 71° ESE 22:02:50 13° S
SL-16 R/B 4.2 21:56:12 10° WSW 22:01:06 30° WNW 22:06:02 10° N
NAVSTAR 52 R/B(PAM-D 4.5 21:59:41 10° W 22:04:10 64° SSW 22:05:05 43° SE
NOAA 11 4.4 22:04:33 27° SE 22:07:22 54° ENE 22:12:39 10° N
Lacrosse 5 rocket 4.5 22:07:06 10° WNW 22:09:26 15° NNW 22:11:51 10° N
COSMOS 2455 2.8 22:03:56 10° SSW 22:09:56 88° ESE 22:15:59 10° NNE
Meteor 2-12 Rocket 4.4 22:06:29 10° N 22:12:37 88° W 22:16:38 23° S
MetOp-B 4.3 22:09:21 21° S 22:13:00 71° WSW 22:18:23 10° NNW
Cosmos 1953 Rocket 3.9 22:12:41 36° SE 22:13:55 46° E 22:18:09 10° NNE
BREEZE-M DEB (TANK) 4.2 22:18:23 10° W 22:19:20 14° WSW 22:19:20 14° WSW
Meteor 1-22 Rocket 4.5 22:14:30 10° N 22:19:58 54° ENE 22:22:21 33° SE
Cosmos 1515 3.9 22:18:53 26° SSW 22:20:57 70° W 22:24:49 10° N
Abrixas rocket 4.0 22:21:37 10° W 22:24:22 22° SW 22:24:24 22° SW
ATLAS 3B R/B 3.0 22:16:52 10° SSW 22:24:23 60° ESE 22:31:49 10° NE
Cosmos 2346 Rocket 4.4 22:20:59 22° S 22:25:14 82° E 22:31:25 10° N
Envisat 4.4 22:22:53 12° SSW 22:27:03 33° W 22:31:38 10° NNW
Cosmos 1066 Rocket 4.2 22:25:40 24° S 22:29:14 85° E 22:35:04 10° N
Cosmos 407 Rocket 3.6 22:29:34 37° SSE 22:31:26 57° ESE 22:36:35 10° NNE
Cosmos 1346 Rocket 2.6 22:31:31 59° SSE 22:32:06 71° E 22:36:00 10° NNE
Cosmos-2242 4.1 22:31:01 10° NNE 22:34:54 30° ENE 22:35:15 29° E
DELTA 2 DEB (DPAF) 4.1 22:34:01 47° SSE 22:35:17 82° ENE 22:39:48 10° N
Lacrosse 4 Rocket 1.4 22:35:27 54° ESE 22:35:27 54° ESE 22:39:20 10° NE
USA 234 3.3 22:33:09 33° SSE 22:36:22 74° SW 22:42:58 10° NW
Kosmos-1675 3.5 22:36:17 53° ESE 22:36:25 54° ESE 22:43:42 10° NE
YAOGAN 6 3.8 22:36:50 29° SW 22:38:02 38° W 22:41:33 10° NNW
ISS -2.6 22:37:46 10° WSW 22:40:58 52° NNW 22:44:10 10° NE
PSLV R/B 3.3 22:38:40 10° W 22:42:14 82° N 22:42:18 81° NNE
USA 81 4.4 22:41:02 10° NNW 22:46:14 60° W 22:48:44 30° SSW
Cosmos 1758 Rocket 3.4 22:47:14 55° S 22:48:11 89° W 22:52:34 10° N
Cosmos 1842 3.8 22:48:55 46° ENE 22:48:55 46° ENE 22:52:15 10° NNE
Cosmos 1954 Rocket 4.2 22:49:59 47° ESE 22:50:30 48° ESE 22:55:36 10° NNE
CARTOSAT-1 3.4 22:51:37 65° SE 22:52:06 73° ENE 22:56:26 10° N
Cosmos 1943 3.5 22:49:01 12° SW 22:54:11 65° WNW 22:59:52 10° NNE
Cosmos 1758 4.3 22:51:17 10° N 22:54:51 36° ENE 22:54:51 36° ENE
Meteor 1-21 4.2 22:53:37 41° S 22:55:45 84° E 23:01:36 10° N
USA 238 DEB 4.1 22:58:20 40° SE 22:59:21 43° ESE 23:05:56 10° NE
USA 238 4.1 22:58:30 40° SE 22:59:27 42° ESE 23:06:01 10° NE
Spot 4 3.8 23:01:24 61° ESE 23:02:01 70° ENE 23:06:48 10° N
Spot 2 4.3 22:57:58 10° NNE 23:02:46 83° ESE 23:03:42 59° S
Landsat 7 4.0 23:02:10 50° SSW 23:03:10 63° WSW 23:07:55 10° NNW
Cosmos 1943 Rocket 2.6 22:58:24 10° NNW 23:03:48 50° ENE 23:05:02 42° ESE
SAR-Lupe-2 3.9 23:05:05 62° WNW 23:05:05 62° WNW 23:08:19 10° NNW
SL-23 DEB 3.9 23:00:43 10° SW 23:06:40 77° SE 23:10:18 10° NE
Cosmos 1766 3.5 23:05:53 10° NNW 23:09:49 66° W 23:09:49 66° W
H-2A R/B 1.9 23:09:27 58° SSW 23:10:20 74° WSW 23:15:23 10° NNW
Cosmos 1092 Rocket 4.3 23:17:40 45° ESE 23:18:33 48° E 23:24:33 10° NNE
Terra 1.9 23:18:26 58° SW 23:18:58 63° WSW 23:23:43 10° NNW
Cosmos 1842 Rocket 4.2 23:14:57 10° N 23:18:45 44° ENE 23:18:45 44° ENE
Cosmos 1570 Rocket 4.4 23:18:10 10° N 23:23:24 51° ENE 23:24:00 48° E
Cosmos 1850 Rocket 4.4 23:26:27 49° E 23:26:27 49° E 23:31:02 10° NNE
Nadezhda 4 Rocket 3.9 23:29:33 58° S 23:30:55 82° E 23:37:18 10° N
CZ-4C R/B 4.0 23:40:01 18° E 23:40:01 18° E 23:42:12 10° ENE
Cosmos 1470 4.2 23:35:22 10° N 23:37:54 31° NE 23:37:54 31° NE
Cosmos 2369 Rocket 3.3 23:34:11 10° NW 23:39:06 31° WSW 23:40:04 29° WSW
Atlas Centaur 2 3.4 23:34:04 10° WSW 23:40:54 42° SSW 23:40:54 42° SSW
Cosmos 1023 Rocket 4.4 23:43:39 79° SW 23:43:58 85° WNW 23:49:16 10° NNE
Cosmos 1805 4.1 23:40:23 10° NNW 23:43:26 48° NW 23:43:26 48° NW
Cosmos 1953 3.4 23:42:43 10° NNW 23:45:51 41° WNW 23:45:51 41° WNW
Cosmos 1140 Rocket 3.5 23:49:15 72° WSW 23:49:37 76° WNW 23:54:53 10° NNE
